Location: Newark
(34.1333°N, 7.9667°W)
Time: 23:18:01
(UTC+00:00)

Tiangong - Pass Details

Date: 29 September 2021
Orbit: 382 x 384 km, 41.5° (Epoch: 20 October)

Event Time Altitude Azimuth Distance (km) Brightness Sun altitude
Exits shadow 04:10:54 15° 58° (ENE) 1,134 4.2 -28.2°
Drops below altitude 10° 04:11:33 10° 60° (ENE) 1,395 4.8 -28.1°
Sets 04:13:44 0° 63° (ENE) 2,294 6.2 -27.6°
